星链-31405 (STARLINK-31405 )

导读

STARLINK-31405是美国SpaceX星链卫星互联网项目的组成卫星,于2024年3月16日发射升空,归属星链低轨星座星座网络,承担全球范围内,尤其覆盖偏远地区、海洋空域等信号空白区域的宽带互联网通信服务任务,是星链规模化低轨星座组网建设过程中,扩展星座覆盖与服务能力的环节之一。

基本信息
目录编号:
59248
目录名称:
STARLINK-31405
国际标识:
2024-049T
轨道中心:
EARTH
卫星名称:
星链-31405
卫星全名:
星链-31405 (STARLINK-31405 )
卫星状态:
在轨 (已飞行824 天)
发射日期:
2024-03-16 UTC
国别 :
美国 (US)
星等 :
--
轨道信息
数据来源 国际轨道数据
星历时间: 2026-06-17T09:44:46+0800
1天前
查看轨道信息
半长轴: 6861.402km
偏心率: 0.0000043
轨道倾角: 43.006°
近地点辐角 298.270°
升交点赤经 302.424°
平近点角 61.815°
近地点: 483.235km
远地点: 483.295km
周期: 94.271分钟
每日圈数: 15.27508
详细信息
固有亮度:
5
最大亮度:
0.3
卫星平台:
Starlink v2.0 mini
覆盖范围:
全球
运营商:
太空探索技术公司
运营商所在国:
美国
制造商(研发单位):
太空探索技术公司
制造商所在国:
美国
使用方式:
暂无
卫星简介
星链(Starlink)计划是由太空探索技术公司(SpaceX)提出的一个巨型低轨卫星互联网星座项目,计划在2019年至2024年间在太空搭建由约1.2万颗卫星组成的“星链”网络,其中1584颗将部署在地球上空550千米处的近地轨道,并从2020年开始工作。该卫星仍在工作。
2D轨道图
3D轨道图
轨道高度分析图
轨道倾角分析图
轨道综合分析图
查看轨道综合分析图